Regional Weather Roundup
Issued by NWS Newport/Morehead, NC

Current Version | Previous Version | Graphics & Text | Print | Product List | Glossary Off
Versions: 1 2 3 4 5 6 7 8 9 10 11 12 13 14 15 16 17 18 19 20 21 22 23 24 25 26 27 28 29 30 31 32 33 34 35 36 37 38 39 40 41 42 43 44 45 46 47 48 49 50

000
ASUS42 KMHX 262312
RWRMHX
WEATHER ROUNDUP FOR EASTERN NORTH CAROLINA
NATIONAL WEATHER SERVICE NEWPORT/MOREHEAD CITY NC
700 PM EDT THU MAR 26 2015

NOTE: "FAIR" INDICATES FEW OR NO CLOUDS BELOW 12,000 FEET
WITH NO SIGNIFICANT WEATHER AND/OR OBSTRUCTIONS TO VISIBILITY

NCZ015>017-031-032-045>047-102-103-270000-
NORTH COAST

CITY           SKY/WX    TMP DP  RH WIND       PRES   REMARKS
EDENTON        CLOUDY    69  60  73 SW10      29.75F
ELIZABETH CITY MOCLDY    68  59  73 S12       29.74F
KITTY HAWK     MOCLDY    66  57  72 S12G20    29.76F
MANTEO         MOCLDY    63  56  78 S21       29.78F

$$

NCZ045>047-081-094-103-104-270000-
CENTRAL COAST

CITY           SKY/WX    TMP DP  RH WIND       PRES   REMARKS
FRISCO         MOCLDY    66  59  78 SW21      29.83F
SWANQUARTER      N/A     63 N/A N/A SW12G21   29.77S

$$

NCZ095-097-098-100-101-270000-
SOUTHERN COAST

CITY           SKY/WX    TMP DP  RH WIND       PRES   REMARKS
BEAUFORT       CLOUDY    63  60  90 SW14G22   29.83F
CEDAR ISLAND     N/A     68 N/A N/A S3G14     29.85S
JACKSONVILLE   CLOUDY    68  59  73 S8        29.81F
PINEY ISLAND   CLOUDY   N/A N/A N/A S16G26    29.82F
WILMINGTON     CLOUDY    68  59  73 SW8       29.81F


$$

NCZ011>013-027>030-043-044-078>080-089-090>093-098-270000-
COASTAL PLAIN

CITY           SKY/WX    TMP DP  RH WIND       PRES   REMARKS
AHOSKIE        CLOUDY    68  56  65 S5        29.73F
CLINTON        CLOUDY    72  60  66 S5        29.78F
ELIZABETHTOWN  CLOUDY    71  60  68 S5        29.79F
GOLDSBORO      CLEAR     71  69  93 S5        29.75F
GREENVILLE     CLOUDY    72  59  64 SW8       29.79F
HAVELOCK       CLOUDY    66  59  78 S10       29.83F
KENANSVILLE    CLOUDY    71  56  60 CALM      29.79F
KINSTON        CLOUDY    72  57  60 S12       29.78F
NEW BERN       CLOUDY    69  58  67 S9        29.81F
RICHLANDS      CLOUDY    72  55  56 S14       29.81S
ROCKY MOUNT    CLOUDY    71  57  61 S10       29.75F
WASHINGTON     CLOUDY    71  56  60 SW7G16    29.77F
WHITEVILLE     CLOUDY    69  60  73 S5        29.79F

$$

AMZ130-135-150-152-154-156-158-170-250-252-270-ANZ085-086-088-633-658-670-270000-
MARINE OBSERVATIONS

STATION/POSITION TIME  TEMP    WIND        PRES    WAVE   SWELL
                       AIR SEA DIR/SP/G            HT/PER HT/PER
                 (UTC) (F)     (DEG/KT/KT) (MB)    (FT/S) (FT/S)
CHESAPEAKE LIGHT 2200   57     210/ 24/ 25 1006.8
64 E VA BEACH    2250   59 51  190/ 19/ 23 1007.5   10/ 9   7/ 9
DUCK             2200   65 42  190/ 11/ 14 1006.9
2 E DUCK         2211      42                N/A     6/ 9   2/11
10 NE DUCK       NOT AVBL
OREGON INLET     2200   62 59  180/ 21/ 25 1008.9
HATTERAS CG      2200          210/ 12/ 17 1010.8
CAPE LOOKOUT     2300   64     200/ 13/ 15 1010.4
BEAUFORT LAB     2200          200/ 16/ 21 1009.4
27 SE WRIGHTSVLE 2200   63 64  250/ 14/ 17 1013.2
5 SE WRIGHTSVLE  2200   60 56  210/ 10/ 12 1010.5
225 S CAPE HAT   2250   71 69  180/ 17/ 21 1015.5    8/ 7   2/14
41 SE CHARLESTON 2250   70 71  200/ 12/ 14 1011.0    5/ 8   5/ 8

$$



USA.gov is the U.S. government's official web portal to all federal, state and local government web resources and services.